This demonstration page uses our WeatherBlox Daily Observations layout. Learn more.

Left ArrowRight Arrow

41.86663, -103.66717

Hourly Observations for February 3, 2015

Temp ( °F °C ) Dew Point ( °F °C ) Humidity (%) Winds ( mph kmh ) Pressure ( in mb ) Visibility ( mi km ) Precip ( " mm )
12:53 am 00:53 Clear 34 1.1 27 -2.8 76 76 E 3 6 29.84 1010 10 16.0934 N/A
1:53 am 01:53 Clear 38 3.3 27 -2.8 65 65 S 8 13 29.8 1009 10 16.0934 N/A
2:53 am 02:53 Clear 33 0.6 27 -2.8 78 78 E 3 6 29.79 1009 10 16.0934 N/A
3:53 am 03:53 Clear 38 3.3 30 -1.1 73 73 NW 9 15 29.78 1008 10 16.0934 N/A
4:53 am 04:53 Clear 34 1.1 28 -2.2 79 79 NNW 8 13 29.81 1010 10 16.0934 N/A
5:53 am 05:53 Clear 39 3.9 30 -1.1 70 70 WNW 10 17 29.82 1010 10 16.0934 N/A
6:53 am 06:53 Clear 39 3.9 30 -1.1 70 70 WNW 8 13 29.84 1011 10 16.0934 N/A
7:53 am 07:53 Sunny 42 5.6 32 undefined 68 68 WNW 12 19 29.88 1012 10 16.0934 N/A
8:53 am 08:53 Sunny 50 10 33 0.6 52 52 W 12 19 29.87 1011 10 16.0934 N/A
9:53 am 09:53 Sunny 53 11.7 33 0.6 47 47 W 15 24 29.86 1011 10 16.0934 N/A
10:53 am 10:53 undefined 57 13.9 33 0.6 41 41 WNW 22 35 29.87 1012 10 16.0934 N/A
11:06 am 11:06 Hazy 57 14 34 1 41 41 WNW 20 31 29.8 1009 1.75 2.816345 N/A
11:20 am 11:20 Sunny 57 14 34 1 41 41 WNW 16 26 29.8 1009 10 16.0934 N/A
11:53 am 11:53 Sunny 58 14.4 31 -0.6 36 36 WNW 23 37 29.85 1011 10 16.0934 N/A
12:53 pm 12:53 Mostly Cloudy 59 15 32 undefined 36 36 WNW 14 22 29.83 1010 10 16.0934 N/A
1:53 pm 13:53 Mostly Sunny 60 15.6 31 -0.6 33 33 W 25 41 29.81 1010 10 16.0934 N/A
2:53 pm 14:53 Sunny 56 13.3 30 -1.1 37 37 WNW 18 30 29.83 1010 10 16.0934 N/A
3:53 pm 15:53 Partly Cloudy 52 11.1 32 undefined 47 47 N 7 11 29.85 1011 10 16.0934 N/A
4:53 pm 16:53 Mostly Cloudy 45 7.2 32 undefined 61 61 E 8 13 29.89 1012 10 16.0934 N/A
5:53 pm 17:53 Mostly Clear 43 6.1 30 -1.1 60 60 ENE 6 9 29.92 1013 10 16.0934 N/A
6:53 pm 18:53 Mostly Cloudy 40 4.4 30 -1.1 68 68 NNW 3 6 29.94 1014 10 16.0934 N/A
7:53 pm 19:53 Mostly Cloudy 39 3.9 29 -1.7 67 67 VRB 6 9 29.94 1014 10 16.0934 N/A
8:53 pm 20:53 Mostly Cloudy 39 3.9 31 -0.6 73 73 E 3 6 29.92 1013 10 16.0934 N/A
9:53 pm 21:53 Cloudy with Light Rain 38 3.3 32 undefined 79 79 NE 8 13 29.9 1013 10 16.0934 N/A
10:53 pm 22:53 Cloudy with Light Rain 36 2.2 33 0.6 89 89 ENE 10 17 29.89 1012 10 16.0934 N/A
11:25 pm 23:25 Cloudy with Light Snow 36 2.2 33 0.6 89 89 E 14 22 30 1016 8 12.87472 0.01 0.254
11:43 pm 23:43 Cloudy with Light Snow 34 1.1 32 undefined 92 92 ENE 10 17 30.03 1017 1.75 2.816345 0.01 0.254
11:53 pm 23:53 Cloudy with Light Snow 33 0.6 33 0.6 100 100 ENE 8 13 29.94 1014 1.25 2.011675 0.03 0.762

Powered by AerisWeather